TimeCDT,TemperatureF,Dew PointF,Humidity,Sea Level PressureIn,VisibilityMPH,Wind Direction,Wind SpeedMPH,Gust SpeedMPH,PrecipitationIn,Events,Conditions,WindDirDegrees,DateUTC
12:53 AM,41.0,37.9,89,29.84,10.0,NW,5.8,-,N/A,,Clear,310,2013-10-07 05:53:00
1:53 AM,41.0,37.9,89,29.85,10.0,West,5.8,-,N/A,,Clear,280,2013-10-07 06:53:00
2:53 AM,39.9,37.0,89,29.86,10.0,WNW,5.8,-,N/A,,Clear,300,2013-10-07 07:53:00
3:53 AM,37.9,35.1,89,29.87,10.0,NW,4.6,-,N/A,,Clear,320,2013-10-07 08:53:00
4:53 AM,37.0,34.0,89,29.88,10.0,WNW,6.9,-,N/A,,Clear,300,2013-10-07 09:53:00
5:53 AM,36.0,34.0,93,29.89,10.0,NW,3.5,-,N/A,,Clear,320,2013-10-07 10:53:00
6:53 AM,36.0,33.1,89,29.91,10.0,NNW,3.5,-,N/A,,Partly Cloudy,330,2013-10-07 11:53:00
7:53 AM,35.1,33.1,92,29.93,10.0,West,3.5,-,N/A,,Scattered Clouds,280,2013-10-07 12:53:00
8:53 AM,43.0,37.9,82,29.93,10.0,Calm,Calm,-,N/A,,Scattered Clouds,0,2013-10-07 13:53:00
9:53 AM,48.9,41.0,74,29.94,10.0,North,5.8,-,N/A,,Scattered Clouds,10,2013-10-07 14:53:00
10:53 AM,52.0,41.0,66,29.95,10.0,Calm,Calm,-,N/A,,Scattered Clouds,0,2013-10-07 15:53:00
11:53 AM,55.0,41.0,59,29.94,10.0,Calm,Calm,-,N/A,,Scattered Clouds,0,2013-10-07 16:53:00
12:53 PM,57.0,39.9,53,29.93,10.0,SE,3.5,-,N/A,,Partly Cloudy,130,2013-10-07 17:53:00
1:53 PM,60.1,41.0,49,29.91,10.0,SSW,5.8,-,N/A,,Scattered Clouds,200,2013-10-07 18:53:00
2:53 PM,61.0,41.0,48,29.88,10.0,SSE,10.4,-,N/A,,Scattered Clouds,160,2013-10-07 19:53:00
3:53 PM,63.0,41.0,45,29.87,10.0,South,8.1,-,N/A,,Partly Cloudy,170,2013-10-07 20:53:00
4:53 PM,63.0,39.9,43,29.85,10.0,SSW,10.4,-,N/A,,Partly Cloudy,200,2013-10-07 21:53:00
5:53 PM,62.1,41.0,46,29.83,10.0,SSE,10.4,-,N/A,,Partly Cloudy,150,2013-10-07 22:53:00
6:53 PM,55.9,43.0,62,29.81,10.0,SE,8.1,-,N/A,,Partly Cloudy,140,2013-10-07 23:53:00
7:53 PM,52.0,43.0,71,29.80,10.0,SE,6.9,-,N/A,,Clear,140,2013-10-08 00:53:00
8:53 PM,53.1,42.1,66,29.79,10.0,SSE,10.4,-,N/A,,Clear,150,2013-10-08 01:53:00
9:53 PM,52.0,41.0,66,29.77,10.0,SSE,11.5,-,N/A,,Clear,160,2013-10-08 02:53:00
10:53 PM,51.1,41.0,68,29.75,10.0,SSE,10.4,-,N/A,,Clear,160,2013-10-08 03:53:00
11:53 PM,50.0,39.9,68,29.73,10.0,SSE,9.2,-,N/A,,Clear,150,2013-10-08 04:53:00